Regional Weather Roundup
Issued by NWS

Home | Current Version | Previous Version | Graphics & Text | Print | Product List | Glossary On
Versions: 1 2 3 4 5 6 7 8 9 10 11 12 13 14 15 16 17 18 19 20 21 22 23 24 25 26 27 28 29 30 31 32 33 34 35 36 37 38 39 40 41 42 43 44 45 46 47 48 49 50
673
ASUS43 KTOP 232008
RWRKS

WEATHER ROUNDUP FOR KANSAS
NATIONAL WEATHER SERVICE GOODLAND KS
300 PM CDT MON MAY 23 2016

NOTE:  "FAIR" INDICATES FEW OR NO CLOUDS BELOW 12,000 FEET WITH NO
SIGNIFICANT WEATHER AND/OR OBSTRUCTIONS TO VISIBILITY.

KSZ001>006-013>018-027>032-041>047-232100-
NORTHWEST KANSAS

CITY           SKY/WX    TMP DP  RH WIND       PRES   REMARKS
GOODLAND       SUNNY     75  42  30 NE10G18   29.84F
HAYS           CLOUDY    77  61  57 S17       29.77F
HILL CITY      CLOUDY    76  60  57 SW6       29.79F
RUSSELL        SUNNY     79  62  56 S25G31    29.76F
$$

KSZ061>065-074>080-084>089-232100-
SOUTHWEST KANSAS

CITY           SKY/WX    TMP DP  RH WIND       PRES   REMARKS
DODGE CITY     MOSUNNY   79  62  56 SE10      29.78F
ELKHART          N/A    N/A N/A N/A MISG        N/A
GARDEN CITY    MOSUNNY   79  58  48 E7        29.78F
GREAT BEND     PTSUNNY   77  61  57 SE21G29   29.77F
LIBERAL        SUNNY     82  55  39 SW7       29.78F
PRATT          PTSUNNY   70  60  70 SE23      29.79F
$$

KSZ066>073-081>083-090>101-232100-
SOUTHEAST KANSAS

CITY           SKY/WX    TMP DP  RH WIND       PRES   REMARKS
CHANUTE        CLOUDY    67  63  87 E5        29.95S
COFFEYVILLE    LGT RAIN  70  62  76 N14G23    29.97R
HUTCHINSON     CLOUDY    75  63  66 S20       29.80F
MEDICINE LODGE   N/A     70  62  76 SE14G23   29.79F
NEWTON         CLOUDY    66  61  82 S20       29.84F
PARSONS        CLOUDY    70  64  81 N13       29.99R
WICHITA INTL   CLOUDY    68  64  87 S15       29.82F
WICHITA JABRA  CLOUDY    68  65  90 S14G22    29.82F
WICHITA MCCONL CLOUDY    67  63  87 S15       29.83F
WINFIELD       CLOUDY    64  64 100 SE9       29.87F
$$

KSZ007>012-019>026-033>040-048>060-102>105-232100-
NORTHEAST KANSAS

CITY           SKY/WX    TMP DP  RH WIND       PRES   REMARKS
CONCORDIA      CLOUDY    75  63  66 S13       29.78F
EMPORIA        CLOUDY    66  58  75 W15G35    29.81R
LAWRENCE       CLOUDY    64  62  93 SE15      29.87F
MANHATTAN      CLOUDY    71  61  70 SW5       29.81R
MARYSVILLE     CLOUDY    73  64  73 S7        29.81R
OLATHE IND     LGT RAIN  63  62  97 SE12      29.91F FOG
OLATHE EXE     LGT RAIN  63  62  97 S8        29.92F FOG
SALINA         CLOUDY    72  63  73 S16G28    29.79F
TOPEKA BILLARD CLOUDY    67  63  87 E14       29.83R
TOPEKA FORBES  CLOUDY    68  62  81 SE16G25   29.80R
$$




USA.gov is the U.S. government's official web portal to all federal, state and local government web resources and services.